GCOM-W1 (SHIZUKU) (38337 NORAD) Tracking and Keplerian Element Data

This shows tracking and keplerian element data for the satellite.

Feedback or suggestion? Click here.




ElementValue
Catalog38337
NameGCOM-W1 (SHIZUKU)
Epoch Orbit34925
Epoch Day344.96405726
Epoch Year2018
RAAN282.5411
Inclination98.2212
Eccentricity9.46E-05
Argument of Perigee125.9783
Mean Anonmoly276.7001
Mean Motion14.57101279
Decay Rate6.3E-07
L11 38337U 12025A 18344.96405726 .00000063 00000-0 24149-4 0 9996
L22 38337 98.2212 282.5411 0000946 125.9783 276.7001 14.57101279349250

Live tracking and technical data element details for GCOM-W1 (SHIZUKU) (NORAD 38337). GCOM-W1 (SHIZUKU) can be tracked NOW for your location showing map with azimuth and elevation plus other details from your city location.

Track the satellite on the map from your city or location and see movement details for azimuth, elevation, latitude, longitude, range, height, and movement on the map or in text.







IsCatalogInMostPopularTable: catalog: 38337, numindb: 66
Update: records affected: 1



GetName: 38337 GCOM-W1 (SHIZUKU)

Hit Count: updated at: Thu, 13 Dec 2018 05:11:12 GMT